UAL2032 KEWR-KRSW

Flight info

Callsign UAL2032
Flight time N/A
Altitude 36000
Route PORTT4 BIGGY Q75 SLOJO Q103 CYNTA SHFTY6
Aircraft A320/M-SDE3FGHIRWY/LB1

Departure

Time 2026-04-22 12:26
Airport Newark Liberty International Airport (KEWR)

Arrival

Time N/A
Airport Southwest Florida International Airport (KRSW)
Time Latitude Longitude Altitude Speed Heading
2026-04-22 11:47 40.69817 -74.17519 22 ft 0 kts 166°
2026-04-22 12:18 40.69836 -74.17525 26 ft 3 kts 166°
2026-04-22 12:18 40.69859 -74.17533 26 ft 3 kts 166°
2026-04-22 12:18 40.69877 -74.17540 24 ft 3 kts 139°
2026-04-22 12:18 40.69887 -74.17562 25 ft 3 kts 85°
2026-04-22 12:19 40.69880 -74.17587 25 ft 3 kts 41°
2026-04-22 12:19 40.69862 -74.17607 23 ft 3 kts 40°
2026-04-22 12:19 40.69845 -74.17627 24 ft 2 kts 40°
2026-04-22 12:19 40.69830 -74.17643 24 ft 2 kts 40°
2026-04-22 12:20 40.69829 -74.17645 22 ft 0 kts 40°
2026-04-22 12:21 40.69838 -74.17634 23 ft 4 kts 40°
2026-04-22 12:22 40.69872 -74.17596 25 ft 7 kts 40°
2026-04-22 12:22 40.69909 -74.17543 22 ft 9 kts 47°
2026-04-22 12:22 40.69965 -74.17476 24 ft 12 kts 46°
2026-04-22 12:22 40.70027 -74.17391 22 ft 13 kts 47°
2026-04-22 12:23 40.70036 -74.17273 22 ft 14 kts 95°
2026-04-22 12:23 40.70026 -74.17144 22 ft 15 kts 95°
2026-04-22 12:23 40.70019 -74.17007 22 ft 15 kts 95°
2026-04-22 12:23 40.70009 -74.16862 22 ft 16 kts 95°
2026-04-22 12:24 40.70007 -74.16764 22 ft 10 kts 65°
2026-04-22 12:24 40.70070 -74.16742 22 ft 9 kts 18°
2026-04-22 12:24 40.70078 -74.16665 21 ft 10 kts 96°
2026-04-22 12:24 40.70072 -74.16573 21 ft 11 kts 95°
2026-04-22 12:25 40.70065 -74.16469 21 ft 12 kts 95°
2026-04-22 12:25 40.70016 -74.16383 22 ft 14 kts 169°
2026-04-22 12:25 40.69878 -74.16458 21 ft 45 kts 205°
2026-04-22 12:25 40.69390 -74.16768 25 ft 107 kts 206°
2026-04-22 12:26 40.68878 -74.17094 23 ft 139 kts 206°
2026-04-22 12:26 40.67598 -74.17929 525 ft 156 kts 205°
2026-04-22 12:26 40.66616 -74.18531 1258 ft 155 kts 193°
2026-04-22 12:26 40.65559 -74.18745 1964 ft 157 kts 186°
2026-04-22 12:27 40.64422 -74.18904 2336 ft 175 kts 188°
2026-04-22 12:27 40.63145 -74.19125 2693 ft 193 kts 197°
2026-04-22 12:27 40.62003 -74.20090 3219 ft 205 kts 231°
2026-04-22 12:27 40.61326 -74.21835 3645 ft 229 kts 246°
2026-04-22 12:28 40.60715 -74.23828 4390 ft 239 kts 248°
2026-04-22 12:28 40.60098 -74.25896 5217 ft 246 kts 249°
2026-04-22 12:28 40.59466 -74.28024 6051 ft 252 kts 250°
2026-04-22 12:28 40.59059 -74.30279 6873 ft 256 kts 266°
2026-04-22 12:29 40.59039 -74.32628 7720 ft 258 kts 270°
2026-04-22 12:29 40.59027 -74.34992 8614 ft 258 kts 270°
2026-04-22 12:29 40.59010 -74.37361 9482 ft 261 kts 270°
2026-04-22 12:29 40.58997 -74.38979 10052 ft 263 kts 270°
2026-04-22 12:30 40.58940 -74.43928 11073 ft 289 kts 270°
2026-04-22 12:30 40.58887 -74.46658 11366 ft 306 kts 270°
2026-04-22 12:30 40.58827 -74.49484 11971 ft 311 kts 270°
2026-04-22 12:31 40.58766 -74.52350 12653 ft 315 kts 270°
2026-04-22 12:31 40.58705 -74.55209 13346 ft 318 kts 270°
2026-04-22 12:31 40.58643 -74.58136 14044 ft 322 kts 270°
2026-04-22 12:31 40.58580 -74.61092 14668 ft 325 kts 270°
2026-04-22 12:32 40.58515 -74.64076 15340 ft 328 kts 270°
2026-04-22 12:32 40.58363 -74.70112 16664 ft 333 kts 267°
2026-04-22 12:32 40.57876 -74.73114 17346 ft 341 kts 255°
2026-04-22 12:33 40.56840 -74.75960 18046 ft 350 kts 242°
2026-04-22 12:33 40.55294 -74.78480 18681 ft 359 kts 233°
2026-04-22 12:33 40.53578 -74.80898 19238 ft 362 kts 233°
2026-04-22 12:33 40.51852 -74.83326 19829 ft 365 kts 233°
2026-04-22 12:34 40.50115 -74.85771 20428 ft 368 kts 233°
2026-04-22 12:34 40.48364 -74.88242 21026 ft 371 kts 233°
2026-04-22 12:34 40.46601 -74.90732 21604 ft 374 kts 233°
2026-04-22 12:34 40.44821 -74.93244 22153 ft 377 kts 233°
2026-04-22 12:35 40.43024 -74.95778 22679 ft 380 kts 233°
2026-04-22 12:35 40.41218 -74.98324 23214 ft 383 kts 233°
2026-04-22 12:35 40.39397 -75.00894 23728 ft 386 kts 233°
2026-04-22 12:35 40.37560 -75.03483 24158 ft 389 kts 233°
2026-04-22 12:36 40.35727 -75.06056 24565 ft 391 kts 233°
2026-04-22 12:36 40.33863 -75.08670 24990 ft 393 kts 233°
2026-04-22 12:36 40.31986 -75.11294 25398 ft 396 kts 233°
2026-04-22 12:36 40.30102 -75.13932 25797 ft 398 kts 233°
2026-04-22 12:37 40.28203 -75.16589 26180 ft 400 kts 233°
2026-04-22 12:37 40.26294 -75.19258 26558 ft 403 kts 233°
2026-04-22 12:37 40.24370 -75.21944 26944 ft 405 kts 233°
2026-04-22 12:37 40.22433 -75.24649 27379 ft 408 kts 233°
2026-04-22 12:38 40.20487 -75.27366 27794 ft 410 kts 233°
2026-04-22 12:38 40.18529 -75.30096 28151 ft 413 kts 233°
2026-04-22 12:38 40.16556 -75.32845 28493 ft 416 kts 233°
2026-04-22 12:38 40.14572 -75.35606 28841 ft 418 kts 233°
2026-04-22 12:39 40.12567 -75.38389 29194 ft 421 kts 233°
2026-04-22 12:39 40.08529 -75.43990 29863 ft 426 kts 233°
2026-04-22 12:39 40.06497 -75.46807 30199 ft 428 kts 233°
2026-04-22 12:40 40.04443 -75.49647 30506 ft 430 kts 233°
2026-04-22 12:40 40.02386 -75.52492 30806 ft 432 kts 233°
2026-04-22 12:40 40.00315 -75.55354 31093 ft 434 kts 233°
2026-04-22 12:40 39.98236 -75.58223 31343 ft 437 kts 233°
2026-04-22 12:41 39.96143 -75.61108 31617 ft 439 kts 233°
2026-04-22 12:41 39.94046 -75.63991 32005 ft 437 kts 233°
2026-04-22 12:41 39.91956 -75.66866 32410 ft 436 kts 233°
2026-04-22 12:41 39.89968 -75.69757 32811 ft 433 kts 236°
2026-04-22 12:42 39.88050 -75.72753 33195 ft 430 kts 237°
2026-04-22 12:42 39.86186 -75.75795 33596 ft 428 kts 238°
2026-04-22 12:42 39.84356 -75.78841 33996 ft 427 kts 238°
2026-04-22 12:42 39.82527 -75.81875 34375 ft 426 kts 238°
2026-04-22 12:43 39.80682 -75.84887 34711 ft 426 kts 237°
2026-04-22 12:43 39.78819 -75.87885 35003 ft 427 kts 237°
2026-04-22 12:43 39.76940 -75.90877 35273 ft 428 kts 237°
2026-04-22 12:43 39.75047 -75.93871 35545 ft 429 kts 237°
2026-04-22 12:44 39.73152 -75.96860 35797 ft 429 kts 237°
2026-04-22 12:44 39.71253 -75.99861 36039 ft 431 kts 237°
2026-04-22 12:44 39.69352 -76.02876 36132 ft 432 kts 237°
2026-04-22 12:45 39.65548 -76.08921 36141 ft 433 kts 237°
2026-04-22 12:45 39.61724 -76.14962 36135 ft 433 kts 237°
2026-04-22 12:46 39.57874 -76.20997 36146 ft 434 kts 236°
2026-04-22 12:46 39.53972 -76.26980 36146 ft 435 kts 236°
2026-04-22 12:47 39.50061 -76.32949 36148 ft 435 kts 236°
2026-04-22 12:47 39.46144 -76.38920 36150 ft 436 kts 235°
2026-04-22 12:48 39.41970 -76.44653 36136 ft 440 kts 231°
2026-04-22 12:48 39.37596 -76.50198 36139 ft 441 kts 231°
2026-04-22 12:49 39.33230 -76.55757 36148 ft 440 kts 231°
2026-04-22 12:49 39.28926 -76.61365 36131 ft 440 kts 232°
2026-04-22 12:50 39.24633 -76.66990 36125 ft 440 kts 232°
2026-04-22 12:50 39.20319 -76.72588 36125 ft 440 kts 231°
2026-04-22 12:51 39.15990 -76.78182 36151 ft 440 kts 232°
2026-04-22 12:51 39.11675 -76.83773 36152 ft 440 kts 232°
2026-04-22 12:52 39.07382 -76.89328 36124 ft 440 kts 231°
2026-04-22 12:52 39.03054 -76.94914 36119 ft 440 kts 231°
2026-04-22 12:53 38.98723 -77.00485 36129 ft 441 kts 231°
2026-04-22 12:53 38.94393 -77.06061 36116 ft 441 kts 231°
2026-04-22 12:54 38.90051 -77.11637 36122 ft 441 kts 231°
2026-04-22 12:54 38.85705 -77.17210 36098 ft 441 kts 231°
2026-04-22 12:55 38.81356 -77.22780 36085 ft 442 kts 231°
2026-04-22 12:55 38.77004 -77.28346 36101 ft 442 kts 231°
2026-04-22 12:56 38.72669 -77.33870 36105 ft 442 kts 231°
2026-04-22 12:56 38.68146 -77.39252 36136 ft 445 kts 228°
2026-04-22 12:57 38.63501 -77.44492 36112 ft 445 kts 227°
2026-04-22 12:57 38.58859 -77.49751 36110 ft 445 kts 227°
2026-04-22 12:58 38.54253 -77.55049 36120 ft 445 kts 228°
2026-04-22 12:58 38.49657 -77.60355 36126 ft 445 kts 228°
2026-04-22 12:59 38.45049 -77.65645 36096 ft 445 kts 227°
2026-04-22 12:59 38.40443 -77.70927 36112 ft 445 kts 227°
2026-04-22 13:00 38.35849 -77.76179 36114 ft 446 kts 228°
2026-04-22 13:00 38.31230 -77.81449 36122 ft 446 kts 227°
2026-04-22 13:01 38.26603 -77.86715 36131 ft 446 kts 227°
2026-04-22 13:01 38.21969 -77.91980 36127 ft 445 kts 227°
2026-04-22 13:02 38.17348 -77.97225 36143 ft 445 kts 227°
2026-04-22 13:02 38.12722 -78.02469 36143 ft 446 kts 227°
2026-04-22 13:03 38.08090 -78.07703 36143 ft 446 kts 227°
2026-04-22 13:03 38.03453 -78.12931 36124 ft 446 kts 227°
2026-04-22 13:04 37.98731 -78.18050 36147 ft 448 kts 224°
2026-04-22 13:04 37.93729 -78.22817 36141 ft 451 kts 221°
2026-04-22 13:05 37.88646 -78.27480 36136 ft 451 kts 221°
2026-04-22 13:05 37.83608 -78.32200 36146 ft 450 kts 222°
2026-04-22 13:06 37.78643 -78.36937 36155 ft 450 kts 223°
2026-04-22 13:06 37.73645 -78.41717 36151 ft 450 kts 223°
2026-04-22 13:07 37.68641 -78.46477 36156 ft 450 kts 222°
2026-04-22 13:07 37.63628 -78.51208 36161 ft 450 kts 222°
2026-04-22 13:08 37.58614 -78.55934 36155 ft 449 kts 222°
2026-04-22 13:08 37.53606 -78.60658 36169 ft 449 kts 222°
2026-04-22 13:09 37.48594 -78.65378 36173 ft 449 kts 222°
2026-04-22 13:09 37.43580 -78.70086 36173 ft 450 kts 222°
2026-04-22 13:10 37.38563 -78.74799 36160 ft 450 kts 222°
2026-04-22 13:10 37.33566 -78.79479 36173 ft 450 kts 222°
2026-04-22 13:11 37.28534 -78.84186 36184 ft 451 kts 222°
2026-04-22 13:11 37.23498 -78.88884 36191 ft 451 kts 222°
2026-04-22 13:12 37.18463 -78.93573 36179 ft 450 kts 222°
2026-04-22 13:12 37.13435 -78.98247 36203 ft 449 kts 222°
2026-04-22 13:13 37.08419 -79.02912 36208 ft 449 kts 222°
2026-04-22 13:13 37.03404 -79.07563 36197 ft 448 kts 221°
2026-04-22 13:14 36.98388 -79.12195 36196 ft 449 kts 221°
2026-04-22 13:14 36.94216 -79.16044 36185 ft 448 kts 221°
2026-04-22 13:15 36.89190 -79.20688 36201 ft 448 kts 221°
2026-04-22 13:15 36.84172 -79.25318 36217 ft 448 kts 221°
2026-04-22 13:16 36.79162 -79.29929 36225 ft 447 kts 221°
2026-04-22 13:16 36.74175 -79.34501 36218 ft 447 kts 221°
2026-04-22 13:17 36.69169 -79.39090 36233 ft 446 kts 221°
2026-04-22 13:17 36.64161 -79.43671 36219 ft 446 kts 221°
2026-04-22 13:18 36.59147 -79.48255 36216 ft 447 kts 221°
2026-04-22 13:18 36.54125 -79.52832 36208 ft 448 kts 221°